Charleston, SC

12:21 PM EDT on September 29, 2016 (GMT -0400)
Charleston Executive

Weather History for KJZI - August, 2013

Change the Weather History Date:

Sunday, August 11, 2013

  Actual Average (KCHS) Record (KCHS)
Temperature  
Mean Temperature 86 °F 81 °F  
Max Temperature 93 °F 90 °F 98 °F (1968)
Min Temperature 80 °F 73 °F 58 °F (1944)
Degree Days  
Heating Degree Days 0 0  
Month to date heating degree days 0  
Since 1 June heating degree days 1  
Since 1 July heating degree days 0  
Cooling Degree Days 22 16  
Month to date cooling degree days 185  
Year to date cooling degree days 1497  
Since 1 June cooling degree days 1135  
Growing Degree Days 36 (Base 50)    
Moisture  
Dew Point 77 °F    
Average Humidity 75    
Maximum Humidity 89    
Minimum Humidity 49    
Precipitation  
Precipitation 0.00 in 0.22 in 7.88 in (1940)
Month to date precipitation 2.38  
Year to date precipitation 30.87  
Sea Level Pressure  
Sea Level Pressure 30.12 in    
Wind  
Wind Speed 6 mph (SW)    
Max Wind Speed 14 mph    
Max Gust Speed 16 mph    
Visibility 10 miles    
Events      
T = Trace of Precipitation, MM = Missing Value Source: NWS Daily Summary

Daily Weather History Graph

Daily Weather History Graph

Search for Another Location

Airport or City:

Trip Planner

Search our weather history database for the weather conditions in past years. The results will help you decide how hot, cold, wet, or windy it might be!

Date:

Astronomy

Aug. 11, 2013 Rise Set
Actual Time 6:40 AM EDT 8:08 PM EDT
Civil Twilight 6:14 AM EDT 8:35 PM EDT
Nautical Twilight 5:43 AM EDT 9:06 PM EDT
Astronomical Twilight 5:10 AM EDT 9:39 PM EDT
Moon 11:07 AM EDT (8/11) 10:44 PM EDT (8/11)
Length of Visible Light 14h 20m
Length of Day
13h 27m
Waxing Crescent, 22% of the Moon is Illuminated
Aug 11
Waxing Crescent
Aug 14
First Quarter
Aug 20
Full
Aug 28
Last Quarter
Sep 5
New

Hourly Weather History & Observations

Time (EDT) Temp. Heat Index Dew Point Humidity Pressure Visibility Wind Dir Wind Speed Gust Speed Precip Events Conditions
12:15 AM 82.4 °F 89.5 °F 75.2 °F 79% 30.13 in 10.0 mi SSW 5.8 mph - 0.00 in   Unknown
12:35 AM 82.4 °F 89.5 °F 75.2 °F 79% 30.13 in 10.0 mi SSW 5.8 mph - 0.00 in   Unknown
12:55 AM 82.4 °F 89.5 °F 75.2 °F 79% 30.12 in 10.0 mi SSW 5.8 mph - 0.00 in   Unknown
1:15 AM 82.4 °F 90.9 °F 77.0 °F 84% 30.12 in 10.0 mi SSW 5.8 mph - 0.00 in   Unknown
1:35 AM 82.4 °F 90.9 °F 77.0 °F 84% 30.12 in 10.0 mi SSW 4.6 mph - 0.00 in   Unknown
1:55 AM 82.4 °F 89.5 °F 75.2 °F 79% 30.11 in 10.0 mi SSW 4.6 mph - 0.00 in   Unknown
2:15 AM 82.4 °F 89.5 °F 75.2 °F 79% 30.11 in 10.0 mi SSW 6.9 mph - 0.00 in   Unknown
2:35 AM 82.4 °F 90.9 °F 77.0 °F 84% 30.11 in 10.0 mi SW 6.9 mph - 0.00 in   Unknown
2:55 AM 82.4 °F 90.9 °F 77.0 °F 84% 30.11 in 10.0 mi SW 5.8 mph - 0.00 in   Unknown
3:15 AM 82.4 °F 90.9 °F 77.0 °F 84% 30.11 in 10.0 mi SW 6.9 mph - 0.00 in   Unknown
3:35 AM 82.4 °F 90.9 °F 77.0 °F 84% 30.11 in 10.0 mi Calm Calm - 0.00 in   Unknown
3:55 AM 82.4 °F 90.9 °F 77.0 °F 84% 30.11 in 10.0 mi WSW 4.6 mph - 0.00 in   Unknown
4:15 AM 80.6 °F 87.1 °F 77.0 °F 89% 30.12 in 10.0 mi SW 4.6 mph - 0.00 in   Unknown
4:35 AM 80.6 °F 87.1 °F 77.0 °F 89% 30.11 in 10.0 mi Calm Calm - 0.00 in   Unknown
4:55 AM 80.6 °F 87.1 °F 77.0 °F 89% 30.12 in 10.0 mi Calm Calm - 0.00 in   Unknown
5:15 AM 80.6 °F 86.2 °F 75.2 °F 84% 30.12 in 10.0 mi Calm Calm - 0.00 in   Unknown
5:35 AM 80.6 °F 87.1 °F 77.0 °F 89% 30.13 in 10.0 mi Calm Calm - 0.00 in   Unknown
5:55 AM 80.6 °F 87.1 °F 77.0 °F 89% 30.13 in 10.0 mi Calm Calm - 0.00 in   Unknown
6:15 AM 80.6 °F 87.1 °F 77.0 °F 89% 30.14 in 10.0 mi Calm Calm - 0.00 in   Unknown
6:35 AM 80.6 °F 87.1 °F 77.0 °F 89% 30.14 in 10.0 mi Calm Calm - 0.00 in   Unknown
6:55 AM 80.6 °F 87.1 °F 77.0 °F 89% 30.15 in 10.0 mi Calm Calm - 0.00 in   Unknown
7:15 AM 80.6 °F 87.1 °F 77.0 °F 89% 30.15 in 10.0 mi Calm Calm - 0.00 in   Unknown
7:35 AM 80.6 °F 87.1 °F 77.0 °F 89% 30.16 in 10.0 mi Calm Calm - 0.00 in   Unknown
7:55 AM 82.4 °F 90.9 °F 77.0 °F 84% 30.16 in 10.0 mi WSW 3.5 mph - 0.00 in   Unknown
8:15 AM 82.4 °F 90.9 °F 77.0 °F 84% 30.16 in 10.0 mi West 5.8 mph - 0.00 in   Unknown
8:35 AM 82.4 °F 90.9 °F 77.0 °F 84% 30.16 in 10.0 mi West 6.9 mph - 0.00 in   Unknown
8:55 AM 84.2 °F 92.3 °F 75.2 °F 74% 30.16 in 10.0 mi West 6.9 mph - 0.00 in   Unknown
9:15 AM 84.2 °F 92.3 °F 75.2 °F 74% 30.16 in 10.0 mi West 8.1 mph - 0.00 in   Unknown
9:35 AM 86.0 °F 96.9 °F 77.0 °F 74% 30.16 in 10.0 mi WSW 6.9 mph - 0.00 in   Unknown
9:55 AM 87.8 °F 97.6 °F 75.2 °F 66% 30.16 in 10.0 mi West 8.1 mph - 0.00 in   Unknown
10:15 AM 87.8 °F 97.6 °F 75.2 °F 66% 30.16 in 10.0 mi WSW 6.9 mph - 0.00 in   Unknown
10:35 AM 89.6 °F 99.8 °F 75.2 °F 62% 30.16 in 10.0 mi West 5.8 mph - 0.00 in   Unknown
10:55 AM 89.6 °F 99.8 °F 75.2 °F 62% 30.16 in 10.0 mi West 6.9 mph - 0.00 in   Unknown
11:15 AM 91.4 °F 102.5 °F 75.2 °F 59% 30.16 in 10.0 mi WNW 8.1 mph - 0.00 in   Unknown
11:35 AM 91.4 °F 100.1 °F 73.4 °F 55% 30.16 in 10.0 mi WNW 8.1 mph - 0.00 in   Unknown
11:55 AM 91.4 °F 100.1 °F 73.4 °F 55% 30.15 in 10.0 mi West 9.2 mph - 0.00 in   Unknown
12:15 PM 91.4 °F 100.1 °F 73.4 °F 55% 30.15 in 10.0 mi WSW 6.9 mph - 0.00 in   Unknown
12:35 PM 93.2 °F 102.4 °F 73.4 °F 52% 30.14 in 10.0 mi WSW 5.8 mph - 0.00 in   Unknown
12:55 PM 93.2 °F 102.4 °F 73.4 °F 52% 30.13 in 10.0 mi West 8.1 mph - 0.00 in   Unknown
1:15 PM 93.2 °F 100.5 °F 71.6 °F 49% 30.13 in 10.0 mi West 5.8 mph - 0.00 in   Unknown
1:35 PM 93.2 °F 105.0 °F 75.2 °F 56% 30.13 in 10.0 mi SW 4.6 mph - 0.00 in   Unknown
1:55 PM 91.4 °F 107.2 °F 78.8 °F 66% 30.12 in 10.0 mi SSW 9.2 mph - 0.00 in   Unknown
2:15 PM 91.4 °F 107.2 °F 78.8 °F 66% 30.12 in 10.0 mi South 11.5 mph - 0.00 in   Unknown
2:35 PM 89.6 °F 102.2 °F 77.0 °F 66% 30.12 in 10.0 mi South 11.5 mph - 0.00 in   Unknown
2:55 PM 91.4 °F 107.2 °F 78.8 °F 66% 30.11 in 10.0 mi SSW 11.5 mph - 0.00 in   Unknown
3:15 PM 91.4 °F 107.2 °F 78.8 °F 66% 30.10 in 10.0 mi South 11.5 mph 16.1 mph 0.00 in   Unknown
3:35 PM 91.4 °F 105.1 °F 77.0 °F 63% 30.09 in 10.0 mi SW 13.8 mph - 0.00 in   Unknown
3:55 PM 91.4 °F 107.2 °F 78.8 °F 66% 30.08 in 10.0 mi SSW 10.4 mph - 0.00 in   Unknown
4:15 PM 91.4 °F 102.5 °F 75.2 °F 59% 30.08 in 10.0 mi SSW 11.5 mph - 0.00 in   Unknown
4:35 PM 91.4 °F 107.2 °F 78.8 °F 66% 30.07 in 10.0 mi SSW 10.4 mph - 0.00 in   Unknown
4:55 PM 91.4 °F 105.1 °F 77.0 °F 63% 30.07 in 10.0 mi South 11.5 mph - 0.00 in   Unknown
5:15 PM 89.6 °F 102.2 °F 77.0 °F 66% 30.07 in 10.0 mi South 11.5 mph - 0.00 in   Unknown
5:35 PM 89.6 °F 102.2 °F 77.0 °F 66% 30.08 in 10.0 mi South 11.5 mph - 0.00 in   Unknown
5:55 PM 89.6 °F 102.2 °F 77.0 °F 66% 30.08 in 10.0 mi SSW 11.5 mph - 0.00 in   Unknown
6:15 PM 89.6 °F 99.8 °F 75.2 °F 62% 30.08 in 10.0 mi SSW 12.7 mph - 0.00 in   Unknown
6:35 PM 87.8 °F 99.7 °F 77.0 °F 70% 30.08 in 10.0 mi SSW 11.5 mph - 0.00 in   Unknown
6:55 PM 87.8 °F 99.7 °F 77.0 °F 70% 30.08 in 10.0 mi South 11.5 mph - 0.00 in   Unknown
7:15 PM 87.8 °F 99.7 °F 77.0 °F 70% 30.08 in 10.0 mi SSW 10.4 mph - 0.00 in   Unknown
7:35 PM 86.0 °F 95.1 °F 75.2 °F 70% 30.08 in 10.0 mi SSW 5.8 mph - 0.00 in   Unknown
7:55 PM 86.0 °F 95.1 °F 75.2 °F 70% 30.08 in 10.0 mi SSW 6.9 mph - 0.00 in   Unknown
8:15 PM 84.2 °F 94.1 °F 77.0 °F 79% 30.08 in 10.0 mi SSW 8.1 mph - 0.00 in   Unknown
8:35 PM 84.2 °F 96.1 °F 78.8 °F 84% 30.09 in 10.0 mi SSW 6.9 mph - 0.00 in   Unknown
8:55 PM 84.2 °F 96.1 °F 78.8 °F 84% 30.09 in 10.0 mi SSW 8.1 mph - 0.00 in   Unknown
9:15 PM 84.2 °F 96.1 °F 78.8 °F 84% 30.09 in 10.0 mi SSW 9.2 mph - 0.00 in   Unknown
9:35 PM 84.2 °F 96.1 °F 78.8 °F 84% 30.09 in 10.0 mi SSW 5.8 mph - 0.00 in   Unknown
9:55 PM 82.4 °F 92.4 °F 78.8 °F 89% 30.09 in 9.0 mi SSW 8.1 mph - 0.00 in   Unknown
10:15 PM 82.4 °F 92.4 °F 78.8 °F 89% 30.10 in 9.0 mi SW 8.1 mph - 0.00 in   Unknown
10:35 PM 82.4 °F 90.9 °F 77.0 °F 84% 30.11 in 10.0 mi SSW 6.9 mph - 0.00 in   Unknown
10:55 PM 82.4 °F 90.9 °F 77.0 °F 84% 30.11 in 10.0 mi SW 6.9 mph - 0.00 in   Unknown
11:15 PM 82.4 °F 90.9 °F 77.0 °F 84% 30.11 in 10.0 mi SW 6.9 mph - 0.00 in   Unknown
11:35 PM 82.4 °F 90.9 °F 77.0 °F 84% 30.11 in 10.0 mi SW 5.8 mph - 0.00 in   Unknown
11:55 PM 82.4 °F 90.9 °F 77.0 °F 84% 30.11 in 10.0 mi WSW 3.5 mph - 0.00 in   Unknown